Location: Ostrava
(49.8330°N, 18.2830°E)
Time: 23:29:08
(UTC+01:00)

Daily predictions for brighter satellites

Satellite Brightness Start Highest point End
(mag) Time Altitude Azimuth Time Altitude Azimuth Time Altitude Azimuth
MOS 1-B Rocket 3.9 17:43:50 10° SSE 17:50:01 81° ENE 17:55:41 10° NNW
Cosmos 1975 Rocket 4.4 17:47:35 10° NNE 17:50:53 20° ENE 17:54:12 10° ESE
Cosmos 2237 Rocket 3.0 17:48:04 10° NW 17:53:35 58° WSW 17:59:05 10° S
Landsat 4 4.3 17:50:57 10° NNE 17:54:26 36° E 17:57:55 10° SSE
FENGYUN 3A 3.7 17:49:44 10° SSE 17:55:09 90° WSW 18:00:37 10° NNW
Tiangong 2 3.9 17:54:12 10° SW 17:55:50 13° SSW 17:57:26 10° S
Cosmos 2227 Rocket 2.2 17:51:16 10° SSW 17:56:50 64° ESE 18:02:26 10° NNE
Cosmos 44 3.5 17:52:15 10° NW 17:57:14 83° SW 18:02:27 10° SE
ALOS 2.4 17:53:00 10° SSE 17:57:40 82° WSW 18:02:24 10° NNW
Cosmos 2219 3.8 17:52:21 10° SW 17:57:54 60° WNW 18:03:32 10° NNE
SL-16 R/B 2.2 17:52:26 10° NNW 17:58:09 73° ENE 18:03:47 10° SE
Cosmos 1464 Rocket 4.1 17:54:03 10° N 18:00:01 50° ENE 18:05:57 10° SSE
Resurs 01 Rocket 3.2 17:58:57 10° E 18:01:39 16° ENE 18:04:21 10° NNE
FREGAT/IRIS 3.4 18:00:06 10° SE 18:02:45 30° ENE 18:05:26 10° N
CZ-2C R/B 3.7 17:59:33 10° NNE 18:04:03 84° WNW 18:08:29 10° SSW
MOS 1 4.4 18:00:27 10° SSE 18:06:07 83° WSW 18:11:52 10° NNW
ATLAS 3B R/B 3.1 17:58:59 10° SW 18:06:09 70° NW 18:13:02 10° NE
NOSS 3-2 (A) 3.6 18:04:34 10° SW 18:10:37 90° SE 18:17:27 10° NE
Cosmos 2297 Rocket 2.2 18:05:01 10° SSW 18:10:38 71° ESE 18:16:18 10° NNE
Cosmos 1072 Rocket 4.5 18:05:35 10° N 18:11:45 66° ENE 18:17:58 10° SSE
Cosmos 1378 Rocket 3.6 18:09:32 10° N 18:13:54 55° ENE 18:18:14 10° SSE
MTI 3.6 18:11:17 10° NNE 18:14:29 74° ESE 18:17:40 10° S
BREEZE-M R/B 3.5 18:12:52 10° W 18:14:57 47° SSW 18:19:34 10° ESE
Cosmos 1603 4.2 18:11:11 10° NNW 18:16:33 41° NE 18:21:51 10° ESE
Meteor 1-14 Rocket 4.4 18:14:05 10° S 18:19:46 59° E 18:25:36 10° NNE
Meteor 1-20 Rocket 4.4 18:16:42 10° SSE 18:22:13 52° E 18:27:51 10° NNE
ATLAS CENTAUR R/B 2.8 18:19:21 10° NNW 18:22:37 23° NNE 18:24:43 16° ENE
YAOGAN 6 4.2 18:22:36 16° ENE 18:22:59 16° ENE 18:25:17 10° NNE
HJ-1C 3.8 18:20:15 10° SE 18:23:30 43° ENE 18:26:47 10° N
Cosmos 1782 Rocket 4.3 18:23:02 10° SSE 18:26:56 31° E 18:30:50 10° NNE
Cosmos 2285 Rocket 4.4 18:20:42 10° SW 18:27:01 68° WNW 18:33:25 10° NNE
Iridium 4 Rocket 3.3 18:22:49 10° N 18:27:47 59° E 18:32:17 10° SSE
Cosmos 1452 Rocket 4.0 18:22:55 10° NNW 18:28:09 64° WSW 18:33:19 10° S
USA 238 DEB 4.4 18:21:23 10° WSW 18:28:09 56° NW 18:35:04 10° NE
USA 238 4.3 18:21:28 10° WSW 18:28:15 56° NW 18:35:10 10° NE
COSMO-SKYMED 1 3.3 18:25:59 10° N 18:30:16 57° WNW 18:34:31 10° SSW
Sich 1 Rocket 3.9 18:27:06 10° SSE 18:31:22 44° E 18:35:37 10° NNE
Cosmos 158 Rocket 3.8 18:28:30 10° S 18:33:17 58° ESE 18:38:06 10° NNE
SJ-6B 2.8 18:30:01 10° SSE 18:33:42 52° ENE 18:37:30 10° N
Spot 2 Rocket 4.4 18:31:38 16° ESE 18:34:44 28° ENE 18:39:02 10° N
Cosmos 2034 Rocket 4.0 18:29:37 10° N 18:36:00 68° ENE 18:42:21 10° SSE
Meteor 1-18 Rocket 4.2 18:31:38 10° NNW 18:37:17 88° W 18:42:51 10° S
Cosmos 1891 Rocket 4.4 18:31:03 10° N 18:37:21 80° E 18:43:28 10° SSE
Cosmos 1048 Rocket 4.3 18:32:46 10° S 18:37:49 46° ESE 18:42:50 10° NE
Cosmos 1633 2.4 18:34:20 10° S 18:37:53 75° E 18:41:29 10° NNE
Aureole 3 3.9 18:32:17 10° S 18:37:55 87° W 18:42:17 10° N
SPOT 3 Rocket 4.3 18:33:04 10° S 18:38:12 57° WSW 18:43:22 10° NNW
H-2A R/B 3.2 18:34:27 10° S 18:38:20 65° W 18:42:14 10° NNW
Cosmos 2082 3.8 18:34:18 10° SSW 18:39:56 81° WNW 18:45:38 10° NNE
Okean 1 3.2 18:39:44 10° N 18:43:46 79° E 18:47:44 10° SSE
ERS-2 2.5 18:42:24 10° S 18:46:04 68° WSW 18:49:46 10° NNW
Okean 2 Rocket 3.8 18:42:37 10° SSE 18:46:28 30° E 18:50:21 10° NNE
USA 215 3.9 18:43:33 19° ENE 18:47:27 35° SE 18:53:19 10° SSW
Cosmos 1634 Rocket 4.4 18:42:49 10° N 18:48:32 38° ENE 18:52:59 16° SE
USA 186 2.3 18:50:14 36° E 18:50:31 37° ENE 18:53:38 10° N
Cosmos 1812 4.5 18:47:39 10° NNW 18:51:13 35° W 18:54:45 10° SSW
Meteor 1-19 Rocket 4.1 18:45:53 10° N 18:51:22 61° ENE 18:56:51 10° SSE
Meteor 1-25 Rocket 4.2 18:45:57 10° S 18:51:30 90° ESE 18:57:08 10° NNE
Meteor 2-4 Rocket 4.0 18:46:11 10° N 18:51:50 46° ENE 18:56:35 14° SE
CZ-2D R/B 3.1 18:53:22 10° SSE 18:57:15 80° ENE 19:01:11 10° N
Meteor 1-11 Rocket 4.1 18:55:48 10° SSE 19:00:53 37° E 19:06:07 10° NNE
Cosmos 921 Rocket 3.5 18:58:22 10° NNW 19:02:52 63° WSW 19:07:17 10° S
NOSS 3-2 (C) 3.9 18:58:30 10° WSW 19:04:35 64° NW 19:11:27 10° NE
CZ-4C R/B 3.0 18:59:07 10° NW 19:05:49 56° NE 19:09:49 28° ESE
Cosmos 1908 Rocket 3.9 19:02:19 10° SSW 19:06:46 67° WNW 19:11:14 10° N
ARGOS Delta rocket 3.8 19:02:16 10° NNE 19:07:11 61° E 19:11:47 10° S
Cosmos 1602 3.6 19:04:53 10° S 19:08:44 64° E 19:12:36 10° NNE
COSMOS 2455 3.9 19:09:08 10° SSE 19:12:26 25° SE 19:12:26 25° SE
SeaSat 1 2.7 19:11:00 11° SSE 19:15:47 68° WSW 19:20:44 10° NW
SJ-11-01 4.4 19:16:09 41° ESE 19:17:24 54° ENE 19:22:03 10° N
NOAA 11 4.4 19:20:58 41° E 19:21:59 46° ENE 19:27:09 10° N
Envisat 3.2 19:18:26 10° S 19:23:29 71° WSW 19:28:35 10° NNW
Cosmos 1943 3.1 19:18:02 10° NNW 19:23:42 69° ENE 19:25:44 40° SE
USA 267 3.2 19:20:41 35° ESE 19:23:45 76° NNE 19:30:17 10° WNW
Resurs 1-3 3.4 19:22:12 34° SSE 19:24:05 81° ENE 19:28:30 10° NNW
Thor Agena Rocket 3.4 19:19:32 10° NNE 19:24:41 85° ESE 19:29:44 10° SSW
Cosmos 1437 Rocket 3.0 19:21:43 10° SSW 19:25:47 71° WNW 19:29:55 10° N
CENTAUR R/B 2.6 19:20:43 10° SW 19:26:55 88° NW 19:33:08 14° NE
Cosmos 1975 Rocket 3.9 19:24:46 10° NNW 19:29:05 52° W 19:33:23 10° S
Cosmos 1110 Rocket 4.2 19:29:25 10° NNW 19:34:42 70° WSW 19:37:56 24° S
Cosmos 1269 Rocket 4.0 19:30:39 10° SSW 19:35:56 81° WNW 19:41:16 10° NNE
Tsikada Rocket 4.1 19:29:31 10° S 19:35:57 82° W 19:42:25 10° N
Resurs 01 Rocket 1.7 19:35:48 36° S 19:37:35 76° WSW 19:42:02 10° NNW
SL-8 R/B 3.6 19:33:34 10° WSW 19:38:18 64° SSE 19:38:24 64° SSE
Cosmos 494 Rocket 4.3 19:34:08 10° S 19:38:04 46° SSE 19:38:04 46° SSE
Meteor 1-23 Rocket 4.2 19:34:10 10° N 19:40:00 69° ENE 19:41:31 49° SE
Cosmos 1939 Rocket 3.0 19:40:37 60° SSW 19:41:15 74° WSW 19:45:23 10° NNW
Cosmos 2227 Rocket 4.0 19:36:28 10° WSW 19:41:21 29° NW 19:46:15 10° NNE
Cosmos 2297 Rocket 4.1 19:50:27 10° W 19:55:13 27° NW 20:00:02 10° NNE
YAOGAN 6 3.9 19:57:00 40° WNW 19:57:00 40° WNW 19:59:43 10° NNW
H-2A R/B 3.3 19:58:08 30° NNE 19:58:08 30° NNE 20:01:24 10° N
ATLAS 3B R/B 4.2 19:51:55 10° W 19:58:00 30° NNW 20:02:38 15° NNE
Cosmos 1536 Rocket 4.0 19:55:09 10° NNW 19:58:48 58° NNW 19:58:48 58° NNW
ATLAS CENTAUR R/B 2.2 19:57:52 10° NW 20:01:00 51° NW 20:01:00 51° NW
Spot 2 Rocket 4.3 20:11:49 35° SSW 20:13:28 48° W 20:18:24 10° NNW
ERS-1 Rocket 4.3 20:16:05 30° N 20:16:05 30° N 20:18:45 10° N
Cosmos 2279 Rocket 3.8 20:09:10 10° N 20:15:26 90° WSW 20:15:49 80° S
USA 215 3.1 20:30:55 88° NNE 20:30:59 89° NW 20:37:32 10° WSW
ARGOS 4.1 20:42:50 43° NNW 20:42:50 43° NNW 20:46:26 10° NNW
CZ-4C R/B 3.4 20:47:44 10° NW 20:54:33 51° WSW 20:55:02 50° SW
Cosmos 2082 Rocket 4.4 20:53:08 10° N 20:54:59 16° N 20:54:59 16° N
USA 267 4.1 21:08:01 42° WSW 21:08:01 42° WSW 21:13:17 10° WNW
CENTAUR R/B 4.0 21:12:32 10° W 21:18:33 36° NNW 21:20:22 31° N
H-2A R/B 4.3 21:38:45 22° NW 21:38:45 22° NW 21:40:52 10° NNW
ATLAS 3B R/B 4.4 21:45:12 10° NW 21:49:53 25° N 21:49:53 25° N
